Regional Weather Roundup
Issued by NWS Wakefield, VA

Home | Current Version | Previous Version | Text Only | Print | Product List | Glossary Off
Versions: 1 2 3 4 5 6 7 8 9 10 11 12 13 14 15 16 17 18 19 20 21 22 23 24 25 26 27
000 ASUS41 KAKQ 191110 RWRAKQ REGIONAL WEATHER ROUNDUP NATIONAL WEATHER SERVICE WAKEFIELD VA 700 AM EDT SAT APR 19 2014 Note: "fair" indicates few or no clouds below 12,000 feet with no significant weather and/or obstructions to visibility. * = Denotes station may not report precipitation (e.g., rain,snow,etc.), thunder or fog. VAZ042-051-052>054-056-191200- NORTHERN VIRGINIA CITY SKY/WX TMP DP RH WIND PRES REMARKS WASH NATIONAL CLOUDY 47 39 74 E3 30.28R DULLES CLOUDY 38 36 92 CALM 30.27R FORT BELVOIR CLOUDY 40 39 97 CALM 30.28R QUANTICO CLOUDY 43 39 86 NW7 30.29R FREDERICKSBRG* CLOUDY 45 43 93 CALM 30.27R STAFFORD* CLOUDY 39 39 100 CALM 30.32R FOG WARRENTON CLOUDY 40 40 100 CALM 30.26S CULPEPER* CLOUDY 41 41 100 CALM 30.28R MANASSAS* CLEAR 39 39 100 CALM 30.27S LEESBURG* MOCLDY 41 39 93 N5 30.28R WINCHESTER CLOUDY 41 36 81 CALM 30.27R $$ VAZ048-049-060>072-079>083-191200- CENTRAL AND SOUTH CENTRAL VIRGINIA...AND NORTH CENTRAL NORTH CAROLINA CITY SKY/WX TMP DP RH WIND PRES REMARKS RICHMOND CLOUDY 47 42 83 CALM 30.25R CHESTERFIELD* NOT AVBL HANOVER CLOUDY 45 42 89 CALM 30.28R TAPPAHANNOCK* CLOUDY 44 41 88 CALM 30.27R CHARLOTTSVILLE CLOUDY 42 38 85 CALM 30.25R ORANGE* CLOUDY 39 37 93 CALM 30.28R LOUISA* CLOUDY 43 39 87 CALM 30.24R FARMVILLE* LGT RAIN 45 45 100 NW5 30.23R SOUTH HILL* LGT RAIN 46 46 100 N6 30.27R ROANOKE RAPIDS LGT RAIN 45 43 93 N7 30.20R RALEIGH LGT RAIN 47 44 90 NE5 30.18R $$ VAZ088>098-191200- SOUTHEAST VIRGINIA CITY SKY/WX TMP DP RH WIND PRES REMARKS NORFOLK LGT RAIN 47 42 83 N13 30.23R VIRGINIA BEACH LGT RAIN 47 43 86 N12 30.23R NORFOLK NAVAL LGT RAIN 49 42 77 NE17 30.25R WEST POINT* CLOUDY 48 44 85 CALM 30.27R NEWPORT NEWS LGT RAIN 50 45 83 NE6 30.24S LANGLEY AFB LGT RAIN 47 47 99 NE7 30.25R FORT EUSTIS DRIZZLE 47 45 93 E5 30.22S WILLIAMSBURG* N/A 48 46 93 NE3 30.25S FRANKLIN* CLOUDY 46 N/A N/A N5 30.23R WAKEFIELD LGT RAIN 47 45 93 CALM 30.24R FOG $$ VAZ020-022-025-037-045-191200- WESTERN AND SOUTHWEST VIRGINIA CITY SKY/WX TMP DP RH WIND PRES REMARKS STAUNTON* CLOUDY 39 36 88 CALM 30.26R HOT SPRINGS VA CLOUDY 48 32 53 NE9 30.27S LYNCHBURG CLOUDY 50 41 71 N3 30.23S DANVILLE LGT RAIN 47 44 90 NE6 30.20F MARTINSVILLE LGT RAIN 46 44 94 NE3 30.22S ROANOKE CLOUDY 47 40 76 CALM 30.24R BLACKSBURG CLOUDY 45 43 93 CALM 30.23R DUBLIN* CLOUDY 43 41 91 CALM 30.21R MARION* CLOUDY 44 38 79 CALM 30.21S HILLSVILLE* CLOUDY 43 37 81 NE6 30.21R RICHLANDS* CLOUDY 53 32 44 E7 30.18S WISE* CLOUDY 50 34 53 NE3 30.20R ABINGDON* CLOUDY 54 32 43 E7 30.16R $$ MDZ021>025-VAZ099-100-191200- SOUTHERN MARYLAND AND THE DELMARVA PENINSULA CITY SKY/WX TMP DP RH WIND PRES REMARKS PATUXENT RIVER CLOUDY 43 40 89 CALM 30.27R BAY BRIDGE APT CLOUDY 45 45 100 CALM 30.27S LEONARDTOWN CLOUDY 43 39 87 CALM 30.29R DOVER MOCLDY 39 39 100 S2 30.24R GEORGETOWN CLOUDY 41 38 89 CALM 30.28R EASTON CLOUDY 43 43 100 CALM 30.31R CAMBRIDGE CLOUDY 43 39 87 CALM 30.27R SALISBURY CLOUDY 43 39 86 CALM 30.27R OCEAN CITY CLOUDY 44 41 89 CALM 30.28R WALLOPS ISLAND CLOUDY 46 42 86 N6 30.28R ACCOMACK* CLOUDY 45 37 76 NE5 30.26R $$ NCZ012>017-030>032-191200- EASTERN NORTH CAROLINA CITY SKY/WX TMP DP RH WIND PRES REMARKS ELIZABETH CITY CLOUDY 47 44 90 NE12 30.20R AHOSKIE* CLOUDY 46 44 93 N7 30.20R EDENTON* DRIZZLE 46 45 93 NE8 30.19R CURRITUCK* CLOUDY 47 44 88 N10 30.22R KILL DEVIL HLS CLOUDY 47 46 93 N12G17 30.18R MANTEO CLOUDY 48 45 91 NE16 30.18R CAPE HATTERAS CLOUDY 51 51 100 NE15G24 30.10F GOLDSBORO LGT RAIN 47 47 98 N10 30.12R WASHINGTON CLOUDY 46 42 85 NE8 30.17R GREENVILLE LGT RAIN 46 45 93 NE9 30.18R NEW BERN RAIN 52 49 89 NE12G20 30.12R WILMINGTON RAIN 54 52 93 NE14 30.04S FOG $$ VAZ048-191200- ELSEWHERE CITY SKY/WX TMP DP RH WIND PRES REMARKS HARRISBURG PA MOCLDY 42 35 76 NW5 30.28R BALTIMORE CLOUDY 41 36 82 CALM 30.27R ANNAPOLIS CLOUDY 44 41 89 CALM 30.27R ANDREWS AFB CLOUDY 40 38 91 CALM 30.27R WILMINGTON DE PTCLDY 40 38 93 W5 30.27R PHILADELPHIA MOCLDY 44 39 82 CALM 30.28R WILDWOOD NJ* MOCLDY 39 34 81 CALM 30.28R ATLANTIC CITY PTCLDY 35 34 96 CALM 30.27R HENDERSON NC LGT RAIN 46 44 93 N8 30.20R GREENSBORO LGT RAIN 46 43 89 NE10 30.16R ROCKY MOUNT LGT RAIN 46 44 93 N12 30.18R FAYETTEVILLE LGT RAIN 50 47 89 NE20G28 30.07F CHARLOTTE RAIN 48 46 93 N13 30.12R FOG $$ VAZ100-191200- MARINE STATION/POSITION TIME TEMP WIND PRES WAVE SWELL AIR SEA DIR/SP/G HT/PER HT/PER (UTC) (F) (DEG/KT/KT) (MB) (FT/S) (FT/S) 44066 TX TWR #4 1100 42 44 320/ 10/ 12 1024.0F 6/11 5/11 CAPE MAY NJ 1100 41 52 CALM / 1 1024.8R LEWES DE 1100 44 47 290/ 2/ 3 1024.4R 15NM E FENWICK I 1100 44 45 1025.2R 6/11 OCEAN-CITY-INLET 1100 44 47 70/ 1/ 2 1025.0R WACHAPREAGUE VA 1100 46 52 50/ 5/ 7 1024.4R THOMAS POINT MD 1100 48 52 CALM / 1 1025.6R GOOSES REEF MD 1100 47 220/ 2/ 2 1025.9R COVE POINT MD 1100 47 CALM / 1 1024.8R SOLOMONS ISLAND 1100 52 N/A BISHOPS HEAD MD 1100 46 53 350/ 3/ 4 1024.6R PINEY POINT MD 1100 60/ 3/ 3 N/A POTOMAC MD 1100 47 90/ 4/ 6 1024.1S CAMBRIDGE MD 1100 44 55 150/ 3/ 3 1024.8R LEWISETTA VA 1100 47 53 110/ 2/ 3 1024.7R RAPPAHANNOCK LGT 1100 40/ 11/ 12 1024.9R STINGRAY PT 1100 48 30/ 12/ 14 1024.2R YORK RVR RNG VA 1100 48 70/ 9/ 10 1023.4F YORKTOWN VA 1100 48 54 50/ 6/ 8 1023.9S JAMESTOWN VA 1100 47 60/ 4/ 6 N/A DOMINION TERM VA 1100 47 30/ 4/ 7 1023.8F KIPTOPEKE VA 1100 52 70/ 6/ 8 N/A CHES BAY BRIDGE 1100 47 51 10/ 12/ 13 1023.7S CAPE HENRY VA 1100 47 20/ 14/ 17 N/A CHESAPEAKE LGHT 1000 45 30/ 15/ 16 1023.8S WILLOUBY STN VA 1100 48 30/ 15/ 16 1022.9F S CRANEY ISL VA 1100 360/ 11/ 14 1023.6F CAPE HENRY BUOY 1100 47 N/A 5/11 2/11 1ST LANDING BUOY 1100 46 N/A 4/11 3/11 64NM E OF VA BCH 1100 48 48 20/ 19/ 23 1022.1F 7/11 5/11 DUCK PIER NC 1100 47 49 10/ 16/ 19 1021.4R 44100 DUCK FRF 1100 48 N/A 6/11 3/11 44056 DUCK FRF 1100 47 N/A 5/12 2/12 OREGON INLET NC 1100 48 51 360/ 15/ 20 1021.2R HATTERAS NC 1100 54 58 30/ 15/ 22 1019.3R CAPE LOOKOUT NC 1000 56 10/ 17/ 21 1017.5R FRYING PAN SHLS 1100 66 65 230/ 8/ 10 1014.1R 8/ 7 8/ 7 $$

USA.gov is the U.S. government's official web portal to all federal, state and local government web resources and services.